Location: Joplin, MO
(37.0842°N, 94.5133°W)
Time: 11:30:52
(UTC+02:00)

Vanguard 3 - Pass Details

Date: 05 April 2023
Orbit: 507 x 3246 km, 33.4° (Epoch: 01 June)

Event Time Altitude Azimuth Distance (km) Brightness Sun altitude
Rises 07:21:07 0° 226° (SW) 4,718 - -44.7°
Reaches altitude 10° 07:23:52 10° 221° (SW) 4,044 - -44.9°
Maximum altitude 07:35:03 51° 149° (SSE) 2,929 - -45.6°
Exits shadow 07:44:44 28° 92° (E) 4,433 10.6 -46.1°
Drops below altitude 10° 07:52:26 10° 81° (E) 6,087 11.5 -46.4°
Sets 07:57:39 0° 77° (ENE) 7,203 12.0 -46.6°
